ATLAS CENTAUR 2 DEB, 700

Orbit data source: Space-Track

ATLAS CENTAUR 2 DEB, 700 is space debris in LEO originally from a launch on Wed, 27 Nov 1963 UTC launched from the Air Force Eastern Test Range (AFETR). Debris objects in space refer to the collection of defunct objects orbiting the Earth. Examples of debris include non-operational satellites, rocket bodies, and fragments generated from explosions, collisions, or faulty payload assembly.

Loading next visibility...
Identifier
700, 1963-047F
Orbit
LEO
Country
Flag of USUS
Related business
Manufacturer
GD/Convair
Mission
Spacecraft
Bus & Motor
CENTAUR PART, Unknown motor
Mass
Unknown
Launch date (UTC)
1963-11-27 (63 years ago)
Launch vehicle
Unknown
Launch site
Air Force Eastern Test Range (AFETR)
Object type
Payload
Rocket body
Debris
Shape & HBR
Unknown shape, 0.7 m
Radar Cross Section
Medium (>0.1 m² and <1 m²)

Expand to show TLE details & history
Last TLE update: 13 hours ago

TLE from 13 hours ago
0 ATLAS CENTAUR 2 DEB
1 00700U 63047F   26237.48690175  .00000181  00000-0  38885-4 0  9993
2 00700  30.4851  48.2232 0717172 264.5545  87.2884 13.40248825 59432
Epoch: 2026-08-25T11:41Z
TLE epoch observation values (Epoch: 2026-08-25T11:41:08.311Z)
Latitude
0.00002°
Longitude
-100.81494°
Altitude
1,119.995 km
Speed
7.288 km/s
True Right ascension
03h 12m 53s
True Declination
0° 00' 00"
Sunlit
Object was in daylight at epoch
Visualization orbit readout
Latitude
Unknown
Longitude
Unknown
Altitude
Unknown
Speed
Unknown
Apparent Right ascension
Unknown
Apparent Declination
Unknown
Sunlit
N/A
Visualization observer readout
Local Sidereal Time
15:52:59
Azimuth
Unknown
Elevation
Unknown
Doppler factor
Unknown
Orbital elements
Apogee altitude
1,649.17 km
Perigee altitude
574.827 km
Semi-major axis
7,490.135 km
Eccentricity
0.07172
Inclination
30.4851°
RAAN
48.2232°
Arg. of periapsis
264.5545°
True anomaly
95.50409°
Mean anomaly
87.2884°
Eccentric anomaly
91.39627°
Mean motion
3.34818 °/min
Orbital period
107.52 mins
BSTAR
0.000038885
Loading maneuver chart data...
Computing Atmospheric mass density...

Documentation

Showing up to 5 results
|